Terminal Aerodrome Forecast
Issued by NWS Wilmington, NC

Home | Current Version | Previous Version | Text Only | Print | Product List | Glossary On
Versions: 1 2 3 4 5 6 7 8 9 10 11 12 13 14 15
000
FTUS42 KILM 292320
TAFMYR
TAF
KMYR 292320Z 3000/3024 13012KT P6SM SCT030 SCT070
     FM300300 12005KT P6SM SCT020
     FM300800 10004KT P6SM BKN012
     FM301300 12008KT P6SM SCT020 BKN035
      AMD LTD TO CLD VIS AND WIND TIL 301100=

USA.gov is the U.S. government's official web portal to all federal, state and local government web resources and services.